Powrót do katalogu

THORAD AGENA D DEB

AktywnySSO
NORAD 5129·DEBRIS·🇺🇸 United States

Wystrzelony Apr 8, 1970 z Vandenberg Space Force Base

Loading…

Następne Przeloty (najbliższe 24 godziny)

TLE

ŚwieżeSource: Space-Track

Epoka: Sep 14, 2026, 04:23 UTC

1 05129U 70025JN  26257.18303053  .00001408  00000-0  17988-2 0  9994
2 05129  99.3114 342.7250 0191942 209.6995 179.6329 13.57350431745718

Śledź THORAD AGENA D DEB w czasie rzeczywistym z AllMySat

Download on the App Store